{"data":{"norad_id":68044,"intl_designator":"2026-041E","name":"STARLINK-36966","alt_names":[],"object_type":"PAYLOAD","status":"ACTIVE","operator":null,"country":"US","launch_date":"2026-03-02","launch_site_code":"AFETR","launch_vehicle":null,"mission":null,"orbit_class":"UNKNOWN","rcs_meters":null,"size_class":null,"mass_kg":null,"dimensions":null,"purposes":["comms"],"wikipedia_slug":null,"has_3d_model":false,"image_url":null,"decayed_at":null,"tle_current":{"epoch":"2026-05-25T00:50:04.045056Z","epoch_age_seconds":71708,"freshness":"FRESH","line1":"1 68044U 26041E   26145.03476904  .00011953  00000+0  36431-3 0  9994","line2":"2 68044  53.1585  53.3880 0001350 101.0745 259.0409 15.34401979 13102","mean_motion":15.34401979,"eccentricity":0.000135,"inclination_deg":53.1585,"raan_deg":53.388,"arg_perigee_deg":101.0745,"mean_anomaly_deg":259.0409,"bstar":0.00036431,"rev_number":1310,"period_min":93.84763704088,"perigee_km":461.77384557001,"apogee_km":463.62087084673,"semimajor_km":6840.8343582084,"source":"CELESTRAK","updated_at":"2026-05-25T13:38:21.810812Z"}}}